Regional Weather Roundup
Issued by NWS

Home | Current Version | Previous Version | Text Only | Print | Product List | Glossary Off
Versions: 1 2 3 4 5 6 7 8 9 10 11 12 13 14 15 16 17 18 19 20 21 22 23 24 25 26 27 28 29 30 31 32 33 34 35 36 37 38 39 40 41 42 43 44 45 46 47 48 49 50

000
ASUS43 KIND 101959
RWRIN

WEATHER ROUNDUP FOR INDIANA
NATIONAL WEATHER SERVICE INDIANAPOLIS IN
300 PM EST WED FEB 10 2016

NOTE: "FAIR" INDICATES FEW OR NO CLOUDS BELOW 12,000 FEET WITH NO
SIGNIFICANT WEATHER AND/OR OBSTRUCTIONS TO VISIBILITY.

* - STATION DOES NOT REPORT WEATHER SUCH AS PRECIPITATION OR FOG.

+ - STATION NOT QUALITY CONTROLLED BY THE NATIONAL WEATHER SERVICE.
    USE DATA WITH CAUTION...ESPECIALLY DEWPOINT AND RELATIVE
    HUMIDITY OBSERVATIONS.

INZ001>003-010>013-019-020-102100-
NORTHWEST INDIANA

CITY           SKY/WX    TMP DP  RH WIND       PRES   REMARKS
GARY /AIRPORT/ PTSUNNY   19   3  49 W12       30.02S WCI   7
RENSSELAER +   CLOUDY    18   3  53 W9        30.02S WCI   6

$$

LMZ046-743>745-102100-
SOUTHERN LAKE MICHIGAN

STATION/POSITION TIME  TEMP    WIND        PRES    WAVE
                       AIR SEA DIR/SP/G            HT
                 (UTC) (F)     (DEG/KT/KT) (MB)    (FT)
BURNS HARBOR     1900   16     290/ 10/ 12 1016.6F
MICHIGAN CITY    1900   15     260/ 16/ 18   N/A

$$

INZ004-005-014>016-021>024-102100-
NORTH CENTRAL INDIANA

CITY           SKY/WX    TMP DP  RH WIND       PRES   REMARKS
ELKHART        FLURRIES  19   9  63 NW16      29.94R WCI   5
GOSHEN         HVY SNOW  17  13  84 W16       29.93R VSB 1/4 WCI   2
SOUTH BEND     LGT SNOW  16  10  77 W17       29.96R VSB 1   WCI   0

$$

INZ006>009-017-018-025>027-102100-
NORTHEAST INDIANA

CITY           SKY/WX    TMP DP  RH WIND       PRES   REMARKS
ANGOLA *+      PTSUNNY   19  10  68 NW10      29.87R WCI   8
FORT WAYNE     FLURRIES  23  11  60 W21G26    29.94R WCI   8

$$

INZ028-029-035-036-043>045-051>053-102100-
WEST CENTRAL INDIANA

CITY           SKY/WX    TMP DP  RH WIND       PRES   REMARKS
GREENCASTLE +  MOSUNNY   18   1  49 SW9       30.04F WCI   6
LAFAYETTE      CLOUDY    15   5  64 W14       30.04S WCI   0
TERRE HAUTE    MOSUNNY   18   6  59 W14       30.08F WCI   4

$$

INZ030>032-037>040-046>048-054>057-064-065-102100-
CENTRAL INDIANA

CITY           SKY/WX    TMP DP  RH WIND       PRES   REMARKS
ANDERSON       CLOUDY    16   7  67 W12G17    30.01  WCI   3
INDIANAPOLIS   PTSUNNY   16   5  62 W10       30.02F WCI   4
-EAGLE CREEK   CLOUDY    15   5  64 W7G20     30.02F WCI   5
KOKOMO *+      PTSUNNY   16   5  62 W18G24    30.00R WCI  -1
MT COMFORT *+  CLOUDY    16   5  62 W16G22    30.02S WCI   0
SHELBYVILLE    CLOUDY    17   5  59 W14       30.02F WCI   3

$$

INZ033-034-041-042-049-050-058-059-102100-
EAST CENTRAL INDIANA

CITY           SKY/WX    TMP DP  RH WIND       PRES   REMARKS
MUNCIE         CLOUDY    17   6  62 W15G23    29.98S WCI   2

$$

INZ060-061-067>069-081>083-085>088-102100-
SOUTHWEST INDIANA

CITY           SKY/WX    TMP DP  RH WIND       PRES   REMARKS
EVANSVILLE     CLOUDY    24   9  52 SW9       30.14F WCI  14
HUNTINGBURG *+ CLOUDY    21   9  58 W16       30.12S WCI   7

$$

INZ062-063-066-070>080-084-089>092-102100-
SOUTH CENTRAL AND SOUTHEAST INDIANA

CITY           SKY/WX    TMP DP  RH WIND       PRES   REMARKS
BLOOMINGTON    MOSUNNY   18   3  52 W12       30.04F WCI   5
MADISON *+     PTSUNNY   21   5  49 SW12G17   30.07S WCI   9

$$




USA.gov is the U.S. government's official web portal to all federal, state and local government web resources and services.